Voltar ao catálogo

CZ-6A DEB

AtivoSSO
NORAD 56684·DEBRIS·🇨🇳 China

Lançado Nov 11, 2022 de Taiyuan Satellite Launch Center

Loading…

Próximas Passagens (próximas 24 horas)

TLE

AtualizadoSource: Space-Track

Época: Sep 12, 2026, 04:57 UTC

1 56684U 22151AHL 26255.20637872  .00000933  00000-0  61849-3 0  9991
2 56684  98.9332 232.4287 0102624 164.6023 195.8305 14.01329588171001

Acompanhe CZ-6A DEB em tempo real com AllMySat

Download on the App Store